Date String (YYYY-MM-DD hh:mm:ss) UTC,Instrument flags,absolute air pressure of the measurement (hPa),sample flow rate (lpm),inlet stack bypass flow (lpm),air temperature of the measurement (°C),ambient temperature measured by the external sensor (°C),aerosol sample conditioner tube jacket temperature (°C),OPC LED temperature (°C),internal box temperature (°C),relative humidity of the measurement (%),span deviation,mass concentration of particles derived from Lorenz-Mie calculation of OPC scattering (μg/m³),mass concentration of particles derived from Lorenz-Mie calculation of OPC scattering (μg/m³),mass concentration of particles derived from Lorenz-Mie calculation of OPC scattering (μg/m³)
DateTimeUTC,F1_M11,P_M11,Q1_M11,Q2_M11,T1_M11,T2_M11,T3_M11,T4_M11,T5_M11,U1_M11,ZSPAN_M11,X0_M11,X2_M11,X1_M11
2024-06-11 14:00:00,SystemResetWarning,0832.2,5.00,000.00,030.9,030.2,000.0,039.3,032.5,031.8,0000.0,0011.31,0005.99,0005.08
2024-06-11 14:01:00,SystemResetWarning,0832.2,5.00,000.00,030.8,028.7,000.0,039.3,031.8,031.7,0000.0,0011.97,0006.01,0005.07
2024-06-11 14:02:00,SystemResetWarning,0832.2,5.01,000.00,030.3,026.8,000.0,039.3,030.9,032.4,0000.0,0012.09,0006.05,0005.07
2024-06-11 14:03:00,SystemResetWarning,0832.2,5.02,000.00,030.1,026.7,000.0,039.2,030.8,032.9,0000.0,0012.12,0006.07,0005.07
2024-06-11 14:04:00,SystemResetWarning,0832.1,5.00,000.00,029.9,027.1,000.0,039.0,030.9,033.3,0000.0,0012.57,0006.07,0005.06
2024-06-11 14:05:00,SystemResetWarning,0832.1,4.99,000.00,029.9,027.5,000.0,038.9,031.1,033.6,0000.0,0013.08,0006.10,0005.06
2024-06-11 14:06:00,SystemResetWarning,0832.1,5.00,000.00,029.9,027.9,000.0,038.8,031.3,033.4,0000.0,0013.02,0006.08,0005.07
2024-06-11 14:07:00,SystemResetWarning,0832.0,5.01,000.00,029.9,028.2,000.0,038.7,031.4,033.3,0000.0,0012.86,0006.07,0005.07
2024-06-11 14:08:00,SystemResetWarning,0832.1,5.01,000.00,029.9,028.5,000.0,038.7,031.5,033.5,0000.0,0012.81,0006.05,0005.08
2024-06-11 14:09:00,SystemResetWarning,0832.1,4.99,000.00,030.0,028.7,000.0,038.6,031.6,033.5,0000.0,0011.98,0006.07,0005.10
2024-06-11 14:10:00,SystemResetWarning,0832.1,4.98,000.00,030.0,028.9,000.0,038.6,031.7,033.4,0000.0,0012.18,0006.09,0005.13
2024-06-11 14:11:00,SystemResetWarning,0832.1,5.00,000.00,030.0,029.1,000.0,038.6,031.8,033.1,0000.0,0013.36,0006.14,0005.16
2024-06-11 14:12:00,SystemResetWarning,0832.1,5.00,000.00,030.1,029.2,000.0,038.6,031.8,033.4,0000.0,0013.23,0006.17,0005.18
2024-06-11 14:13:00,SystemResetWarning,0832.1,5.01,000.00,030.1,029.3,000.0,038.6,031.9,033.0,0000.0,0013.46,0006.17,0005.21
2024-06-11 14:14:00,SystemResetWarning,0832.1,5.00,000.00,030.2,029.4,000.0,038.6,031.9,032.8,0000.0,0013.74,0006.18,0005.23
2024-06-11 14:15:00,SystemResetWarning,0832.1,5.00,000.00,030.2,029.5,000.0,038.6,031.9,032.9,0000.0,0013.59,0006.15,0005.24
2024-06-11 14:16:00,SystemResetWarning,0832.1,5.00,000.00,030.2,029.6,000.0,038.6,032.0,032.7,0000.0,0012.84,0006.10,0005.24
2024-06-11 14:17:00,SystemResetWarning,0832.1,4.99,000.00,030.3,029.6,000.0,038.6,032.0,032.5,0000.0,0013.26,0006.13,0005.25
2024-06-11 14:18:00,SystemResetWarning,0832.1,5.00,000.00,030.3,029.7,000.0,038.6,032.0,032.3,0000.0,0013.72,0006.11,0005.24
2024-06-11 14:19:00,SystemResetWarning,0832.1,5.00,000.00,030.3,029.7,000.0,038.6,032.1,032.1,0000.0,0013.56,0006.10,0005.24
2024-06-11 14:20:00,SystemResetWarning,0832.0,5.00,000.00,030.4,029.8,000.0,038.7,032.1,032.5,0000.0,0013.45,0006.07,0005.22
2024-06-11 14:21:00,SystemResetWarning,0832.0,5.00,000.00,030.4,029.8,000.0,038.7,032.1,032.5,0000.0,0013.37,0006.04,0005.21
2024-06-11 14:22:00,SystemResetWarning,0832.0,5.00,000.00,030.4,029.9,000.0,038.7,032.2,032.0,0000.0,0012.11,0006.01,0005.19
2024-06-11 14:23:00,SystemResetWarning,0832.0,5.00,000.00,030.5,029.9,000.0,038.7,032.2,031.8,0000.0,0011.75,0005.96,0005.17
2024-06-11 14:24:00,SystemResetWarning,0832.0,5.01,000.00,030.5,029.9,000.0,038.8,032.2,032.0,0000.0,0011.28,0005.95,0005.16
2024-06-11 14:25:00,SystemResetWarning,0832.0,5.01,000.00,030.5,030.0,000.0,038.8,032.2,031.5,0000.0,0011.87,0005.92,0005.13
2024-06-11 14:26:00,SystemResetWarning,0832.0,5.01,000.00,030.6,030.0,000.0,038.8,032.3,031.5,0000.0,0012.29,0005.92,0005.13
2024-06-11 14:27:00,SystemResetWarning,0832.0,5.00,000.00,030.6,030.0,000.0,038.8,032.3,031.6,0000.0,0012.46,0005.89,0005.11
2024-06-11 14:28:00,SystemResetWarning,0832.0,4.99,000.00,030.6,030.1,000.0,038.8,032.3,031.8,0000.0,0012.05,0005.88,0005.09
2024-06-11 14:29:00,SystemResetWarning,0832.0,4.99,000.00,030.6,029.1,000.0,038.9,031.8,031.9,0000.0,0011.66,0005.83,0005.06
2024-06-11 14:30:00,SystemResetWarning,0831.9,5.00,000.00,030.2,027.1,000.0,038.9,030.9,032.5,0000.0,0012.48,0005.85,0005.06
2024-06-11 14:31:00,SystemResetWarning,0831.9,5.01,000.00,029.9,026.6,000.0,038.9,030.6,033.2,0000.0,0012.82,0005.82,0005.05
2024-06-11 14:32:00,SystemResetWarning,0831.9,5.01,000.00,029.7,027.0,000.0,038.8,030.7,034.0,0000.0,0012.82,0005.83,0005.04
2024-06-11 14:33:00,SystemResetWarning,0831.9,4.99,000.00,029.7,027.4,000.0,038.6,030.9,034.3,0000.0,0013.02,0005.86,0005.03
2024-06-11 14:34:00,SystemResetWarning,0832.0,5.00,000.00,029.7,027.8,000.0,038.5,031.1,034.3,0000.0,0013.15,0005.87,0005.02
2024-06-11 14:35:00,SystemResetWarning,0832.0,5.01,000.00,029.7,028.1,000.0,038.5,031.2,034.3,0000.0,0013.47,0005.84,0005.00
2024-06-11 14:36:00,SystemResetWarning,0832.0,4.99,000.00,029.8,028.4,000.0,038.4,031.3,034.5,0000.0,0013.34,0005.84,0004.99
2024-06-11 14:37:00,SystemResetWarning,0832.0,4.99,000.00,029.8,028.6,000.0,038.4,031.4,034.3,0000.0,0012.62,0005.78,0004.96
2024-06-11 14:38:00,SystemResetWarning,0832.0,5.00,000.00,029.8,028.8,000.0,038.4,031.5,033.8,0000.0,0012.51,0005.80,0004.98
2024-06-11 14:39:00,SystemResetWarning,0832.0,5.01,000.00,029.9,029.0,000.0,038.4,031.6,033.8,0000.0,0013.08,0005.77,0004.97
2024-06-11 14:40:00,SystemResetWarning,0832.1,5.01,000.00,029.9,029.1,000.0,038.4,031.6,033.8,0000.0,0013.21,0005.77,0004.98
2024-06-11 14:41:00,SystemResetWarning,0832.0,4.99,000.00,030.0,029.2,000.0,038.4,031.7,033.9,0000.0,0013.41,0005.83,0004.98
2024-06-11 14:42:00,SystemResetWarning,0832.0,5.00,000.00,030.0,029.3,000.0,038.4,031.7,034.3,0000.0,0013.05,0005.89,0004.98
2024-06-11 14:43:00,SystemResetWarning,0832.0,5.00,000.00,030.1,029.4,000.0,038.4,031.8,033.3,0000.0,0013.03,0005.88,0004.98
2024-06-11 14:44:00,SystemResetWarning,0832.0,5.00,000.00,030.1,029.5,000.0,038.4,031.8,033.4,0000.0,0013.08,0005.85,0004.99
2024-06-11 14:45:00,SystemResetWarning,0832.0,4.99,000.00,030.1,029.5,000.0,038.4,031.9,033.8,0000.0,0013.28,0005.84,0005.00
2024-06-11 14:46:00,SystemResetWarning,0832.0,5.00,000.00,030.2,029.6,000.0,038.5,032.0,034.0,0000.0,0012.89,0005.85,0005.00
2024-06-11 14:47:00,SystemResetWarning,0832.0,5.00,000.00,030.2,029.7,000.0,038.5,032.0,033.7,0000.0,0012.41,0005.88,0005.02
2024-06-11 14:48:00,SystemResetWarning,0832.0,5.00,000.00,030.3,029.7,000.0,038.5,032.0,033.3,0000.0,0012.42,0005.92,0005.04
2024-06-11 14:49:00,SystemResetWarning,0832.0,5.00,000.00,030.3,029.8,000.0,038.5,032.1,033.5,0000.0,0012.16,0005.90,0005.03
2024-06-11 14:50:00,SystemResetWarning,0832.0,5.00,000.00,030.3,029.8,000.0,038.6,032.1,032.9,0000.0,0012.11,0005.89,0005.02
2024-06-11 14:51:00,SystemResetWarning,0832.0,5.00,000.00,030.4,029.9,000.0,038.6,032.1,033.0,0000.0,0012.54,0005.89,0005.04
2024-06-11 14:52:00,SystemResetWarning,0832.0,5.01,000.00,030.4,029.9,000.0,038.6,032.1,032.9,0000.0,0011.80,0005.84,0005.06
2024-06-11 14:53:00,SystemResetWarning,0832.0,5.00,000.00,030.4,029.7,000.0,038.7,032.0,033.1,0000.0,0011.53,0005.80,0005.06
2024-06-11 14:54:00,SystemResetWarning,0831.9,4.99,000.00,030.2,027.8,000.0,038.7,031.1,033.4,0000.0,0011.54,0005.81,0005.08
2024-06-11 14:55:00,SystemResetWarning,0831.8,5.01,000.00,029.8,026.4,000.0,038.7,030.4,033.9,0000.0,0011.34,0005.82,0005.08
2024-06-11 14:56:00,SystemResetWarning,0831.8,5.01,000.00,029.6,026.5,000.0,038.6,030.4,034.3,0000.0,0011.15,0005.81,0005.08
2024-06-11 14:57:00,SystemResetWarning,0831.9,4.99,000.00,029.5,026.9,000.0,038.5,030.6,034.4,0000.0,0011.87,0005.81,0005.06
2024-06-11 14:58:00,SystemResetWarning,0831.9,4.99,000.00,029.5,027.3,000.0,038.4,030.8,034.7,0000.0,0012.63,0005.81,0005.05
2024-06-11 14:59:00,SystemResetWarning,0832.0,5.00,000.00,029.5,027.7,000.0,038.3,031.0,034.8,0000.0,0013.28,0005.79,0005.03
